Flag for Brazil Weather past 2 weeks in Passo Fundo, Rio Grande do Sul, Brazil

Now
61 °F

Passing clouds.


Feels Like: 61 °F
Forecast: 50 / 59 °F
Wind: 8 mph from West

Location: Porto Alegre Aero-Porto

Current Time: May 28, 2015 at 10:17:07 PM

Latest Report: May 28, 2015 at 10:00 PM


Visibility: N/A

Pressure: 30.04 "Hg

Humidity: 88%

Dew point: 57 °F

Location of Passo FundoLocation

Historic Weather in Passo Fundo — Graph

°F

Passo Fundo temperature yesterday

Maximum temperature yesterday: 66 °F (at 12:00 AM)
Minimum temperature yesterday: 63 °F (at 5:00 AM)
Average temperature yesterday: 65 °F

Past Weeks' High & Low Weather Summary

 TemperatureHumidityPressure
High88 °F (May 23, 3:00 PM)100% (May 14, 5:00 AM)30.27 "Hg (May 14, 5:00 AM)
Low32 °F (May 24, 10:00 AM)34% (May 28, 7:00 AM)29.71 "Hg (May 23, 10:00 PM)
Average69 °F79%30.08 "Hg
* Reported May 13 9:00 PM — May 28 9:00 PM, Passo Fundo, Weather by CustomWeather, © 2015

Note: Actual official high and low records may vary slightly from our data, if they occured in-between our weather recording intervals... More about our weather records

Advertising

Passo Fundo weather history for previous 24 hours

 ConditionsComfort  
Time TempWeatherWind HumidityBarometerVisibility
9:00 PM
Thu, May 28
61 °FMostly cloudy.6 mph88%30.04 "Hg6 mi
8:00 PM61 °FMostly cloudy.7 mph88%30.01 "Hg5 mi
7:00 PM61 °FFog.8 mph94%30.01 "Hg2 mi
6:00 PM61 °FLight rain. Fog.6 mph94%30.01 "Hg2 mi
5:00 PM63 °FOvercast.7 mph83%29.98 "Hg4 mi
4:00 PM61 °FLight rain. Fog.7 mph88%29.98 "Hg2 mi
3:00 PM63 °FLight rain. Fog.6 mph88%29.98 "Hg2 mi
2:00 PM64 °FPartly sunny.9 mph83%29.98 "Hg4 mi
1:00 PM64 °FFog.16 mph83%29.98 "Hg3 mi
12:00 PM64 °FFog.9 mph83%29.98 "Hg3 mi
11:00 AM64 °FFog.8 mph83%29.98 "Hg3 mi
10:00 AM63 °FRain. Fog.10 mph88%N/A3 mi
9:00 AM46 °FLight rain. Fog.10 mph100%29.95 "Hg3 mi
8:00 AM64 °FCloudy.12 mph83%29.95 "Hg5 mi
7:00 AM63 °FLight rain. Mostly cloudy.14 mph34%N/A4 mi
6:00 AM46 °FLight rain. Mostly cloudy.16 mph100%29.86 "Hg4 mi
5:00 AM63 °FLight rain. Passing clouds.13 mph94%29.83 "Hg4 mi
4:00 AM64 °FPassing clouds.17 mph88%29.80 "Hg4 mi
3:00 AM63 °FLight rain. Fog.18 mph88%N/A2 mi
2:00 AM64 °FLight rain. Fog.9 mph94%N/A2 mi
1:00 AM46 °FLight rain. Fog.3 mph100%29.77 "Hg2 mi
12:00 AM64 °FLight rain. Fog.7 mph94%N/A2 mi
11:00 PM
Wed, May 27
64 °FLight rain. Fog.5 mph94%N/A2 mi
10:00 PM64 °FPassing clouds.14 mph94%29.80 "Hg5 mi
Weather by CustomWeather, © 2015

See weather overviewHow to use our weather pages